Year,Month,Day,Hour,Minute,Value (Times are PST for temperature in C)
2013,07,14,00,00,15.10
2013,07,14,00,01,15.10
2013,07,14,00,02,15.10
2013,07,14,00,03,15.10
2013,07,14,00,04,15.10
2013,07,14,00,05,15.10
2013,07,14,00,06,15.10
2013,07,14,00,07,15.10
2013,07,14,00,08,15.10
2013,07,14,00,09,15.10
2013,07,14,00,10,15.10
2013,07,14,00,11,15.10
2013,07,14,00,12,15.10
2013,07,14,00,13,15.10
2013,07,14,00,14,15.10
2013,07,14,00,15,15.00
2013,07,14,00,16,15.00
2013,07,14,00,17,15.00
2013,07,14,00,18,15.00
2013,07,14,00,19,14.90
2013,07,14,00,20,14.90
2013,07,14,00,21,14.90
2013,07,14,00,22,14.90
2013,07,14,00,23,14.90
2013,07,14,00,24,14.90
2013,07,14,00,25,14.90
2013,07,14,00,26,14.80
2013,07,14,00,27,14.80
2013,07,14,00,28,14.80
2013,07,14,00,29,14.80
2013,07,14,00,30,14.80
2013,07,14,00,31,14.70
2013,07,14,00,32,14.70
2013,07,14,00,33,14.70
2013,07,14,00,34,14.70
2013,07,14,00,35,14.70
2013,07,14,00,36,14.70
2013,07,14,00,37,14.70
2013,07,14,00,38,14.70
2013,07,14,00,39,14.70
2013,07,14,00,40,14.70
2013,07,14,00,41,14.70
2013,07,14,00,42,14.70
2013,07,14,00,43,14.70
2013,07,14,00,44,14.70
2013,07,14,00,45,14.70
2013,07,14,00,46,14.70
2013,07,14,00,47,14.70
2013,07,14,00,48,14.70
2013,07,14,00,49,14.80
2013,07,14,00,50,14.80
2013,07,14,00,51,14.80
2013,07,14,00,52,14.80
2013,07,14,00,53,14.80
2013,07,14,00,54,14.80
2013,07,14,00,55,14.80
2013,07,14,00,56,14.80
2013,07,14,00,57,14.80
2013,07,14,00,58,14.80
2013,07,14,00,59,14.80
2013,07,14,01,00,14.80
2013,07,14,01,01,14.80
2013,07,14,01,02,14.80
2013,07,14,01,03,14.80
2013,07,14,01,04,14.80
2013,07,14,01,05,14.80
2013,07,14,01,06,14.80
2013,07,14,01,07,14.80
2013,07,14,01,08,14.80
2013,07,14,01,09,14.80
2013,07,14,01,10,14.80
2013,07,14,01,11,14.80
2013,07,14,01,12,14.80
2013,07,14,01,13,14.80
2013,07,14,01,14,14.80
2013,07,14,01,15,14.80
2013,07,14,01,16,14.80
2013,07,14,01,17,14.70
2013,07,14,01,18,14.70
2013,07,14,01,19,14.70
2013,07,14,01,20,14.70
2013,07,14,01,21,14.70
2013,07,14,01,22,14.70
2013,07,14,01,23,14.70
2013,07,14,01,24,14.70
2013,07,14,01,25,14.70
2013,07,14,01,26,14.70
2013,07,14,01,27,14.60
2013,07,14,01,28,14.60
2013,07,14,01,29,14.60
2013,07,14,01,30,14.60
2013,07,14,01,31,14.60
2013,07,14,01,32,14.50
2013,07,14,01,33,14.40
2013,07,14,01,34,14.40
2013,07,14,01,35,14.40
2013,07,14,01,36,14.40
2013,07,14,01,37,14.40
2013,07,14,01,38,14.30
2013,07,14,01,39,14.30
2013,07,14,01,40,14.30
2013,07,14,01,41,14.30
2013,07,14,01,42,14.30
2013,07,14,01,43,14.20
2013,07,14,01,44,14.20
2013,07,14,01,45,14.20
2013,07,14,01,46,14.20
2013,07,14,01,47,14.20
2013,07,14,01,48,14.20
2013,07,14,01,49,14.10
2013,07,14,01,50,14.10
2013,07,14,01,51,14.10
2013,07,14,01,52,14.10
2013,07,14,01,53,14.10
2013,07,14,01,54,14.10
2013,07,14,01,55,14.10
2013,07,14,01,56,14.10
2013,07,14,01,57,14.10
2013,07,14,01,58,14.00
2013,07,14,01,59,14.00
2013,07,14,02,00,14.00
2013,07,14,02,01,14.00
2013,07,14,02,02,14.00
2013,07,14,02,03,14.00
2013,07,14,02,04,13.90
2013,07,14,02,05,13.90
2013,07,14,02,06,13.90
2013,07,14,02,07,13.90
2013,07,14,02,08,13.80
2013,07,14,02,09,13.80
2013,07,14,02,10,13.80
2013,07,14,02,11,13.70
2013,07,14,02,12,13.70
2013,07,14,02,13,13.70
2013,07,14,02,14,13.70
2013,07,14,02,15,13.60
2013,07,14,02,16,13.60
2013,07,14,02,17,13.60
2013,07,14,02,18,13.60
2013,07,14,02,19,13.50
2013,07,14,02,20,13.50
2013,07,14,02,21,13.50
2013,07,14,02,22,13.50
2013,07,14,02,23,13.50
2013,07,14,02,24,13.40
2013,07,14,02,25,13.40
2013,07,14,02,26,13.40
2013,07,14,02,27,13.30
2013,07,14,02,28,13.30
2013,07,14,02,29,13.30
2013,07,14,02,30,13.30
2013,07,14,02,31,13.30
2013,07,14,02,32,13.20
2013,07,14,02,33,13.20
2013,07,14,02,34,13.20
2013,07,14,02,35,13.20
2013,07,14,02,36,13.20
2013,07,14,02,37,13.20
2013,07,14,02,38,13.10
2013,07,14,02,39,13.10
2013,07,14,02,40,13.10
2013,07,14,02,41,13.10
2013,07,14,02,42,13.10
2013,07,14,02,43,13.10
2013,07,14,02,44,13.10
2013,07,14,02,45,13.00
2013,07,14,02,46,13.00
2013,07,14,02,47,13.00
2013,07,14,02,48,13.00
2013,07,14,02,49,13.00
2013,07,14,02,50,13.00
2013,07,14,02,51,12.90
2013,07,14,02,52,12.90
2013,07,14,02,53,12.90
2013,07,14,02,54,12.90
2013,07,14,02,55,12.90
2013,07,14,02,56,12.90
2013,07,14,02,57,12.90
2013,07,14,02,58,12.90
2013,07,14,02,59,12.90
2013,07,14,03,00,12.90
2013,07,14,03,01,12.80
2013,07,14,03,02,12.80
2013,07,14,03,03,12.80
2013,07,14,03,06,12.80
2013,07,14,03,07,12.80
2013,07,14,03,08,12.80
2013,07,14,03,09,12.80
2013,07,14,03,10,12.80
2013,07,14,03,11,12.80
2013,07,14,03,12,12.80
2013,07,14,03,13,12.80
2013,07,14,03,14,12.80
2013,07,14,03,15,12.80
2013,07,14,03,16,12.70
2013,07,14,03,17,12.70
2013,07,14,03,18,12.70
2013,07,14,03,19,12.70
2013,07,14,03,20,12.70
2013,07,14,03,21,12.70
2013,07,14,03,22,12.70
2013,07,14,03,23,12.60
2013,07,14,03,24,12.60
2013,07,14,03,25,12.60
2013,07,14,03,26,12.60
2013,07,14,03,27,12.60
2013,07,14,03,28,12.60
2013,07,14,03,29,12.60
2013,07,14,03,30,12.50
2013,07,14,03,31,12.50
2013,07,14,03,32,12.50
2013,07,14,03,33,12.50
2013,07,14,03,34,12.50
2013,07,14,03,35,12.50
2013,07,14,03,36,12.50
2013,07,14,03,37,12.50
2013,07,14,03,38,12.50
2013,07,14,03,39,12.50
2013,07,14,03,40,12.50
2013,07,14,03,41,12.40
2013,07,14,03,42,12.40
2013,07,14,03,43,12.40
2013,07,14,03,44,12.40
2013,07,14,03,45,12.40
2013,07,14,03,46,12.40
2013,07,14,03,47,12.40
2013,07,14,03,48,12.40
2013,07,14,03,49,12.40
2013,07,14,03,50,12.30
2013,07,14,03,51,12.30
2013,07,14,03,52,12.30
2013,07,14,03,53,12.30
2013,07,14,03,54,12.30
2013,07,14,03,55,12.30
2013,07,14,03,56,12.30
2013,07,14,03,57,12.30
2013,07,14,03,58,12.30
2013,07,14,03,59,12.30
2013,07,14,04,00,12.30
2013,07,14,04,01,12.30
2013,07,14,04,02,12.30
2013,07,14,04,03,12.30
2013,07,14,04,04,12.30
2013,07,14,04,05,12.30
2013,07,14,04,06,12.30
2013,07,14,04,07,12.40
2013,07,14,04,08,12.30
2013,07,14,04,09,12.30
2013,07,14,04,10,12.30
2013,07,14,04,11,12.30
2013,07,14,04,12,12.30
2013,07,14,04,13,12.30
2013,07,14,04,14,12.30
2013,07,14,04,15,12.30
2013,07,14,04,16,12.30
2013,07,14,04,17,12.30
2013,07,14,04,18,12.30
2013,07,14,04,19,12.40
2013,07,14,04,20,12.40
2013,07,14,04,21,12.50
2013,07,14,04,22,12.70
2013,07,14,04,23,12.80
2013,07,14,04,24,12.90
2013,07,14,04,25,13.00
2013,07,14,04,26,13.10
2013,07,14,04,27,13.20
2013,07,14,04,28,13.30
2013,07,14,04,29,13.30
2013,07,14,04,30,13.30
2013,07,14,04,31,13.40
2013,07,14,04,32,13.50
2013,07,14,04,33,13.50
2013,07,14,04,34,13.60
2013,07,14,04,35,13.60
2013,07,14,04,36,13.70
2013,07,14,04,37,13.70
2013,07,14,04,38,13.70
2013,07,14,04,39,13.60
2013,07,14,04,40,13.60
2013,07,14,04,41,13.60
2013,07,14,04,42,13.60
2013,07,14,04,43,13.50
2013,07,14,04,44,13.40
2013,07,14,04,45,13.40
2013,07,14,04,46,13.30
2013,07,14,04,47,13.30
2013,07,14,04,48,13.30
2013,07,14,04,49,13.30
2013,07,14,04,50,13.20
2013,07,14,04,51,13.20
2013,07,14,04,52,13.20
2013,07,14,04,53,13.10
2013,07,14,04,54,13.10
2013,07,14,04,55,13.00
2013,07,14,04,56,13.00
2013,07,14,04,57,12.90
2013,07,14,04,58,12.90
2013,07,14,04,59,12.80
2013,07,14,05,00,12.80
2013,07,14,05,01,12.80
2013,07,14,05,02,12.70
2013,07,14,05,03,12.70
2013,07,14,05,04,12.70
2013,07,14,05,05,12.60
2013,07,14,05,06,12.60
2013,07,14,05,07,12.50
2013,07,14,05,08,12.50
2013,07,14,05,09,12.40
2013,07,14,05,10,12.40
2013,07,14,05,11,12.40
2013,07,14,05,12,12.40
2013,07,14,05,13,12.30
2013,07,14,05,14,12.30
2013,07,14,05,15,12.30
2013,07,14,05,16,12.30
2013,07,14,05,17,12.20
2013,07,14,05,18,12.20
2013,07,14,05,19,12.20
2013,07,14,05,20,12.20
2013,07,14,05,21,12.20
2013,07,14,05,22,12.20
2013,07,14,05,23,12.10
2013,07,14,05,24,12.10
2013,07,14,05,25,12.10
2013,07,14,05,26,12.10
2013,07,14,05,27,12.10
2013,07,14,05,28,12.10
2013,07,14,05,29,12.10
2013,07,14,05,30,12.10
2013,07,14,05,31,12.10
2013,07,14,05,32,12.00
2013,07,14,05,33,12.00
2013,07,14,05,34,12.00
2013,07,14,05,35,12.00
2013,07,14,05,36,12.00
2013,07,14,05,37,12.00
2013,07,14,05,38,12.00
2013,07,14,05,39,12.00
2013,07,14,05,40,12.00
2013,07,14,05,41,12.10
2013,07,14,05,42,12.10
2013,07,14,05,43,12.10
2013,07,14,05,44,12.10
2013,07,14,05,45,12.10
2013,07,14,05,46,12.10
2013,07,14,05,47,12.20
2013,07,14,05,48,12.20
2013,07,14,05,49,12.20
2013,07,14,05,50,12.20
2013,07,14,05,51,12.30
2013,07,14,05,52,12.30
2013,07,14,05,53,12.30
2013,07,14,05,54,12.30
2013,07,14,05,55,12.30
2013,07,14,05,56,12.30
2013,07,14,05,57,12.40
2013,07,14,05,58,12.40
2013,07,14,05,59,12.40
2013,07,14,06,00,12.40
2013,07,14,06,01,12.50
2013,07,14,06,02,12.50
2013,07,14,06,03,12.60
2013,07,14,06,04,12.60
2013,07,14,06,05,12.70
2013,07,14,06,06,12.70
2013,07,14,06,07,12.70
2013,07,14,06,08,12.70
2013,07,14,06,09,12.80
2013,07,14,06,10,12.80
2013,07,14,06,11,12.80
2013,07,14,06,12,12.80
2013,07,14,06,13,12.80
2013,07,14,06,14,12.90
2013,07,14,06,15,12.90
2013,07,14,06,16,12.90
2013,07,14,06,17,12.90
2013,07,14,06,18,12.90
2013,07,14,06,19,12.90
2013,07,14,06,20,13.00
2013,07,14,06,21,13.00
2013,07,14,06,22,13.10
2013,07,14,06,23,13.10
2013,07,14,06,24,13.10
2013,07,14,06,25,13.20
2013,07,14,06,26,13.20
2013,07,14,06,27,13.30
2013,07,14,06,28,13.30
2013,07,14,06,29,13.40
2013,07,14,06,30,13.50
2013,07,14,06,31,13.60
2013,07,14,06,32,13.60
2013,07,14,06,33,13.70
2013,07,14,06,34,13.80
2013,07,14,06,35,13.80
2013,07,14,06,36,13.80
2013,07,14,06,37,13.90
2013,07,14,06,38,13.90
2013,07,14,06,39,14.00
2013,07,14,06,40,14.00
2013,07,14,06,41,14.10
2013,07,14,06,42,14.20
2013,07,14,06,43,14.20
2013,07,14,06,44,14.30
2013,07,14,06,45,14.40
2013,07,14,06,46,14.50
2013,07,14,06,47,14.60
2013,07,14,06,48,14.60
2013,07,14,06,49,14.70
2013,07,14,06,50,14.70
2013,07,14,06,51,14.70
2013,07,14,06,52,14.80
2013,07,14,06,53,14.80
2013,07,14,06,54,14.80
2013,07,14,06,55,14.90
2013,07,14,06,56,14.90
2013,07,14,06,57,15.00
2013,07,14,06,58,15.00
2013,07,14,06,59,15.10
2013,07,14,07,00,15.10
2013,07,14,07,01,15.10
2013,07,14,07,02,15.10
2013,07,14,07,03,15.10
2013,07,14,07,04,15.10
2013,07,14,07,05,15.20
2013,07,14,07,06,15.10
2013,07,14,07,07,15.10
2013,07,14,07,08,15.10
2013,07,14,07,09,15.10
2013,07,14,07,10,15.10
2013,07,14,07,11,15.10
2013,07,14,07,12,15.00
2013,07,14,07,13,15.00
2013,07,14,07,14,15.00
2013,07,14,07,15,15.00
2013,07,14,07,16,14.90
2013,07,14,07,17,14.90
2013,07,14,07,18,14.90
2013,07,14,07,19,14.90
2013,07,14,07,20,14.80
2013,07,14,07,21,14.80
2013,07,14,07,22,14.90
2013,07,14,07,23,14.90
2013,07,14,07,24,14.90
2013,07,14,07,25,14.80
2013,07,14,07,26,14.80
2013,07,14,07,27,14.80
2013,07,14,07,28,14.80
2013,07,14,07,29,14.90
2013,07,14,07,30,14.90
2013,07,14,07,31,14.90
2013,07,14,07,32,14.90
2013,07,14,07,33,14.90
2013,07,14,07,34,14.90
2013,07,14,07,35,14.90
2013,07,14,07,36,14.90
2013,07,14,07,37,14.90
2013,07,14,07,38,15.00
2013,07,14,07,39,15.00
2013,07,14,07,40,15.00
2013,07,14,07,41,15.10
2013,07,14,07,42,15.10
2013,07,14,07,43,15.10
2013,07,14,07,44,15.10
2013,07,14,07,45,15.20
2013,07,14,07,46,15.20
2013,07,14,07,47,15.20
2013,07,14,07,48,15.20
2013,07,14,07,49,15.30
2013,07,14,07,50,15.30
2013,07,14,07,51,15.40
2013,07,14,07,52,15.40
2013,07,14,07,53,15.50
2013,07,14,07,54,15.60
2013,07,14,07,55,15.60
2013,07,14,07,56,15.70
2013,07,14,07,57,15.70
2013,07,14,07,58,15.70
2013,07,14,07,59,15.80
2013,07,14,08,00,15.80
2013,07,14,08,01,15.80
2013,07,14,08,02,15.80
2013,07,14,08,03,15.80
2013,07,14,08,04,15.80
2013,07,14,08,05,15.80
2013,07,14,08,06,15.80
2013,07,14,08,07,15.80
2013,07,14,08,08,15.80
2013,07,14,08,09,15.70
2013,07,14,08,10,15.80
2013,07,14,08,11,15.80
2013,07,14,08,12,15.80
2013,07,14,08,13,15.80
2013,07,14,08,14,15.80
2013,07,14,08,15,15.80
2013,07,14,08,16,15.80
2013,07,14,08,17,15.80
2013,07,14,08,18,15.80
2013,07,14,08,19,15.80
2013,07,14,08,20,15.80
2013,07,14,08,21,15.80
2013,07,14,08,22,15.80
2013,07,14,08,23,15.80
2013,07,14,08,24,15.80
2013,07,14,08,25,15.80
2013,07,14,08,26,15.80
2013,07,14,08,27,15.80
2013,07,14,08,28,15.80
2013,07,14,08,29,15.80
2013,07,14,08,30,15.80
2013,07,14,08,31,15.80
2013,07,14,08,32,15.80
2013,07,14,08,33,15.70
2013,07,14,08,34,15.70
2013,07,14,08,35,15.70
2013,07,14,08,36,15.70
2013,07,14,08,37,15.70
2013,07,14,08,38,15.80
2013,07,14,08,39,15.80
2013,07,14,08,40,15.90
2013,07,14,08,41,15.90
2013,07,14,08,42,15.90
2013,07,14,08,43,15.90
2013,07,14,08,44,16.00
2013,07,14,08,45,16.00
2013,07,14,08,46,16.10
2013,07,14,08,47,16.10
2013,07,14,08,48,16.20
2013,07,14,08,49,16.20
2013,07,14,08,50,16.30
2013,07,14,08,51,16.30
2013,07,14,08,52,16.30
2013,07,14,08,53,16.40
2013,07,14,08,54,16.30
2013,07,14,08,55,16.30
2013,07,14,08,56,16.30
2013,07,14,08,57,16.30
2013,07,14,08,58,16.20
2013,07,14,08,59,16.20
2013,07,14,09,00,16.20
2013,07,14,09,01,16.20
2013,07,14,09,02,16.20
2013,07,14,09,03,16.30
2013,07,14,09,04,16.30
2013,07,14,09,05,16.30
2013,07,14,09,06,16.40
2013,07,14,09,07,16.40
2013,07,14,09,08,16.50
2013,07,14,09,09,16.60
2013,07,14,09,10,16.60
2013,07,14,09,11,16.70
2013,07,14,09,12,16.80
2013,07,14,09,13,16.80
2013,07,14,09,14,16.80
2013,07,14,09,15,16.90
2013,07,14,09,16,16.90
2013,07,14,09,17,17.00
2013,07,14,09,18,17.00
2013,07,14,09,19,17.10
2013,07,14,09,20,17.10
2013,07,14,09,21,17.10
2013,07,14,09,22,17.20
2013,07,14,09,23,17.20
2013,07,14,09,24,17.20
2013,07,14,09,25,17.20
2013,07,14,09,26,17.20
2013,07,14,09,27,17.30
2013,07,14,09,28,17.30
2013,07,14,09,29,17.30
2013,07,14,09,30,17.30
2013,07,14,09,31,17.40
2013,07,14,09,32,17.40
2013,07,14,09,33,17.40
2013,07,14,09,34,17.40
2013,07,14,09,35,17.40
2013,07,14,09,36,17.40
2013,07,14,09,37,17.50
2013,07,14,09,38,17.50
2013,07,14,09,39,17.60
2013,07,14,09,40,17.60
2013,07,14,09,41,17.70
2013,07,14,09,42,17.70
2013,07,14,09,43,17.70
2013,07,14,09,44,17.70
2013,07,14,09,45,17.70
2013,07,14,09,46,17.70
2013,07,14,09,47,17.70
2013,07,14,09,48,17.70
2013,07,14,09,49,17.70
2013,07,14,09,50,17.60
2013,07,14,09,51,17.60
2013,07,14,09,52,17.60
2013,07,14,09,53,17.70
2013,07,14,09,54,17.70
2013,07,14,09,55,17.70
2013,07,14,09,56,17.70
2013,07,14,09,57,17.70
2013,07,14,09,58,17.70
2013,07,14,09,59,17.70
2013,07,14,10,00,17.60
2013,07,14,10,01,17.60
2013,07,14,10,02,17.60
2013,07,14,10,03,17.50
2013,07,14,10,04,17.40
2013,07,14,10,05,17.40
2013,07,14,10,06,17.40
2013,07,14,10,07,17.30
2013,07,14,10,08,17.30
2013,07,14,10,09,17.40
2013,07,14,10,10,17.50
2013,07,14,10,11,17.50
2013,07,14,10,12,17.60
2013,07,14,10,13,17.60
2013,07,14,10,14,17.60
2013,07,14,10,15,17.60
2013,07,14,10,16,17.60
2013,07,14,10,17,17.60
2013,07,14,10,18,17.70
2013,07,14,10,19,17.70
2013,07,14,10,20,17.70
2013,07,14,10,21,17.70
2013,07,14,10,22,17.80
2013,07,14,10,23,17.80
2013,07,14,10,24,17.90
2013,07,14,10,25,17.90
2013,07,14,10,26,17.90
2013,07,14,10,27,18.00
2013,07,14,10,28,18.00
2013,07,14,10,29,18.00
2013,07,14,10,30,18.10
2013,07,14,10,31,18.10
2013,07,14,10,32,18.00
2013,07,14,10,33,18.00
2013,07,14,10,34,18.00
2013,07,14,10,35,17.90
2013,07,14,10,36,17.90
2013,07,14,10,37,18.00
2013,07,14,10,38,18.00
2013,07,14,10,39,18.10
2013,07,14,10,40,18.00
2013,07,14,10,41,18.00
2013,07,14,10,42,17.90
2013,07,14,10,43,17.90
2013,07,14,10,44,17.90
2013,07,14,10,45,17.90
2013,07,14,10,46,17.80
2013,07,14,10,47,17.80
2013,07,14,10,48,17.80
2013,07,14,10,49,17.80
2013,07,14,10,50,17.90
2013,07,14,10,51,18.00
2013,07,14,10,52,18.00
2013,07,14,10,53,18.10
2013,07,14,10,54,18.20
2013,07,14,10,55,18.30
2013,07,14,10,56,18.40
2013,07,14,10,57,18.50
2013,07,14,10,58,18.50
2013,07,14,10,59,18.60
2013,07,14,11,00,18.70
2013,07,14,11,01,18.80
2013,07,14,11,02,18.80
2013,07,14,11,03,18.90
2013,07,14,11,04,19.00
2013,07,14,11,05,19.10
2013,07,14,11,06,19.10
2013,07,14,11,07,19.10
2013,07,14,11,08,19.10
2013,07,14,11,09,19.10
2013,07,14,11,10,19.10
2013,07,14,11,11,19.00
2013,07,14,11,12,18.90
2013,07,14,11,13,18.80
2013,07,14,11,14,18.70
2013,07,14,11,15,18.60
2013,07,14,11,16,18.50
2013,07,14,11,17,18.40
2013,07,14,11,18,18.40
2013,07,14,11,19,18.40
2013,07,14,11,20,18.40
2013,07,14,11,21,18.40
2013,07,14,11,22,18.40
2013,07,14,11,23,18.40
2013,07,14,11,24,18.40
2013,07,14,11,25,18.50
2013,07,14,11,26,18.60
2013,07,14,11,27,18.60
2013,07,14,11,28,18.60
2013,07,14,11,29,18.60
2013,07,14,11,30,18.60
2013,07,14,11,31,18.60
2013,07,14,11,32,18.60
2013,07,14,11,33,18.60
2013,07,14,11,34,18.60
2013,07,14,11,35,18.60
2013,07,14,11,36,18.50
2013,07,14,11,37,18.50
2013,07,14,11,38,18.60
2013,07,14,11,39,18.60
2013,07,14,11,40,18.60
2013,07,14,11,41,18.60
2013,07,14,11,42,18.60
2013,07,14,11,43,18.60
2013,07,14,11,44,18.60
2013,07,14,11,45,18.60
2013,07,14,11,46,18.70
2013,07,14,11,47,18.70
2013,07,14,11,48,18.70
2013,07,14,11,49,18.90
2013,07,14,11,50,19.00
2013,07,14,11,51,19.00
2013,07,14,11,52,19.00
2013,07,14,11,53,19.00
2013,07,14,11,54,18.90
2013,07,14,11,55,18.80
2013,07,14,11,56,18.70
2013,07,14,11,57,18.60
2013,07,14,11,58,18.50
2013,07,14,11,59,18.50
2013,07,14,12,00,18.40
2013,07,14,12,01,18.40
2013,07,14,12,02,18.40
2013,07,14,12,03,18.40
2013,07,14,12,04,18.40
2013,07,14,12,05,18.50
2013,07,14,12,06,18.60
2013,07,14,12,07,18.70
2013,07,14,12,08,18.80
2013,07,14,12,09,18.90
2013,07,14,12,10,18.90
2013,07,14,12,11,18.90
2013,07,14,12,12,18.90
2013,07,14,12,13,19.00
2013,07,14,12,14,19.00
2013,07,14,12,15,19.10
2013,07,14,12,16,19.20
2013,07,14,12,17,19.20
2013,07,14,12,18,19.30
2013,07,14,12,19,19.40
2013,07,14,12,20,19.40
2013,07,14,12,21,19.50
2013,07,14,12,22,19.60
2013,07,14,12,23,19.70
2013,07,14,12,24,19.80
2013,07,14,12,25,19.90
2013,07,14,12,26,20.10
2013,07,14,12,27,20.10
2013,07,14,12,28,20.20
2013,07,14,12,29,20.20
2013,07,14,12,30,20.30
2013,07,14,12,31,20.20
2013,07,14,12,32,20.20
2013,07,14,12,33,20.10
2013,07,14,12,34,20.10
2013,07,14,12,35,20.00
2013,07,14,12,36,20.00
2013,07,14,12,37,20.00
2013,07,14,12,38,20.00
2013,07,14,12,39,20.10
2013,07,14,12,40,20.20
2013,07,14,12,41,20.30
2013,07,14,12,42,20.30
2013,07,14,12,43,20.20
2013,07,14,12,44,20.20
2013,07,14,12,45,20.00
2013,07,14,12,46,19.90
2013,07,14,12,47,19.90
2013,07,14,12,48,19.90
2013,07,14,12,49,19.90
2013,07,14,12,50,19.90
2013,07,14,12,51,19.90
2013,07,14,12,52,20.00
2013,07,14,12,53,20.00
2013,07,14,12,54,20.10
2013,07,14,12,55,20.20
2013,07,14,12,56,20.20
2013,07,14,12,57,20.30
2013,07,14,12,58,20.40
2013,07,14,12,59,20.40
2013,07,14,13,00,20.40
2013,07,14,13,01,20.60
2013,07,14,13,02,20.60
2013,07,14,13,03,20.60
2013,07,14,13,04,20.60
2013,07,14,13,05,20.60
2013,07,14,13,06,20.50
2013,07,14,13,07,20.60
2013,07,14,13,08,20.60
2013,07,14,13,09,20.60
2013,07,14,13,10,20.60
2013,07,14,13,11,20.50
2013,07,14,13,12,20.40
2013,07,14,13,13,20.20
2013,07,14,13,14,20.10
2013,07,14,13,15,20.00
2013,07,14,13,16,20.10
2013,07,14,13,17,20.10
2013,07,14,13,18,20.20
2013,07,14,13,19,20.20
2013,07,14,13,20,20.30
2013,07,14,13,21,20.30
2013,07,14,13,22,20.30
2013,07,14,13,23,20.30
2013,07,14,13,24,20.30
2013,07,14,13,25,20.40
2013,07,14,13,26,20.50
2013,07,14,13,27,20.60
2013,07,14,13,28,20.60
2013,07,14,13,29,20.60
2013,07,14,13,30,20.50
2013,07,14,13,31,20.40
2013,07,14,13,32,20.40
2013,07,14,13,33,20.30
2013,07,14,13,34,20.30
2013,07,14,13,35,20.30
2013,07,14,13,36,20.30
2013,07,14,13,37,20.30
2013,07,14,13,38,20.40
2013,07,14,13,39,20.40
2013,07,14,13,40,20.30
2013,07,14,13,41,20.30
2013,07,14,13,42,20.20
2013,07,14,13,43,20.10
2013,07,14,13,44,20.10
2013,07,14,13,45,20.20
2013,07,14,13,46,20.30
2013,07,14,13,47,20.40
2013,07,14,13,48,20.50
2013,07,14,13,49,20.50
2013,07,14,13,50,20.40
2013,07,14,13,51,20.50
2013,07,14,13,52,20.40
2013,07,14,13,53,20.30
2013,07,14,13,54,20.30
2013,07,14,13,55,20.30
2013,07,14,13,56,20.40
2013,07,14,13,57,20.40
2013,07,14,13,58,20.50
2013,07,14,13,59,20.50
2013,07,14,14,00,20.60
2013,07,14,14,01,20.60
2013,07,14,14,02,20.80
2013,07,14,14,03,20.80
2013,07,14,14,04,20.80
2013,07,14,14,05,20.80
2013,07,14,14,06,20.70
2013,07,14,14,07,20.70
2013,07,14,14,08,20.60
2013,07,14,14,09,20.50
2013,07,14,14,10,20.50
2013,07,14,14,11,20.50
2013,07,14,14,12,20.60
2013,07,14,14,13,20.60
2013,07,14,14,14,20.60
2013,07,14,14,15,20.60
2013,07,14,14,16,20.50
2013,07,14,14,17,20.50
2013,07,14,14,18,20.50
2013,07,14,14,19,20.50
2013,07,14,14,20,20.50
2013,07,14,14,21,20.50
2013,07,14,14,22,20.40
2013,07,14,14,23,20.40
2013,07,14,14,24,20.30
2013,07,14,14,25,20.30
2013,07,14,14,26,20.40
2013,07,14,14,27,20.50
2013,07,14,14,28,20.50
2013,07,14,14,29,20.60
2013,07,14,14,30,20.50
2013,07,14,14,31,20.50
2013,07,14,14,32,20.50
2013,07,14,14,33,20.40
2013,07,14,14,34,20.20
2013,07,14,14,35,20.20
2013,07,14,14,36,20.10
2013,07,14,14,37,20.10
2013,07,14,14,38,20.10
2013,07,14,14,39,20.10
2013,07,14,14,40,20.10
2013,07,14,14,41,20.00
2013,07,14,14,42,19.90
2013,07,14,14,43,19.80
2013,07,14,14,44,19.80
2013,07,14,14,45,19.80
2013,07,14,14,46,19.70
2013,07,14,14,47,19.70
2013,07,14,14,48,19.60
2013,07,14,14,49,19.60
2013,07,14,14,50,19.60
2013,07,14,14,51,19.60
2013,07,14,14,52,19.50
2013,07,14,14,53,19.40
2013,07,14,14,54,19.40
2013,07,14,14,55,19.40
2013,07,14,14,56,19.50
2013,07,14,14,57,19.60
2013,07,14,14,58,19.70
2013,07,14,14,59,19.70
2013,07,14,15,00,19.70
2013,07,14,15,01,19.60
2013,07,14,15,02,19.50
2013,07,14,15,03,19.40
2013,07,14,15,04,19.30
2013,07,14,15,05,19.30
2013,07,14,15,06,19.30
2013,07,14,15,07,19.30
2013,07,14,15,08,19.30
2013,07,14,15,09,19.20
2013,07,14,15,10,19.10
2013,07,14,15,11,19.10
2013,07,14,15,12,19.20
2013,07,14,15,13,19.10
2013,07,14,15,14,18.90
2013,07,14,15,15,18.60
2013,07,14,15,16,18.30
2013,07,14,15,17,18.20
2013,07,14,15,18,18.10
2013,07,14,15,19,18.10
2013,07,14,15,20,18.20
2013,07,14,15,21,18.30
2013,07,14,15,22,18.40
2013,07,14,15,23,18.40
2013,07,14,15,24,18.40
2013,07,14,15,25,18.40
2013,07,14,15,26,18.40
2013,07,14,15,27,18.50
2013,07,14,15,28,18.60
2013,07,14,15,29,18.60
2013,07,14,15,30,18.50
2013,07,14,15,31,18.40
2013,07,14,15,32,18.30
2013,07,14,15,33,18.20
2013,07,14,15,34,18.00
2013,07,14,15,35,17.90
2013,07,14,15,36,17.80
2013,07,14,15,37,17.80
2013,07,14,15,38,17.80
2013,07,14,15,39,17.70
2013,07,14,15,40,17.70
2013,07,14,15,41,17.70
2013,07,14,15,42,17.60
2013,07,14,15,43,17.50
2013,07,14,15,44,17.50
2013,07,14,15,45,17.40
2013,07,14,15,46,17.40
2013,07,14,15,47,17.40
2013,07,14,15,48,17.30
2013,07,14,15,49,17.40
2013,07,14,15,50,17.50
2013,07,14,15,51,17.60
2013,07,14,15,52,17.70
2013,07,14,15,53,17.70
2013,07,14,15,54,17.80
2013,07,14,15,55,17.90
2013,07,14,15,56,18.00
2013,07,14,15,57,18.20
2013,07,14,15,58,18.40
2013,07,14,15,59,18.50
2013,07,14,16,00,18.60
2013,07,14,16,01,18.70
2013,07,14,16,02,18.80
2013,07,14,16,03,18.90
2013,07,14,16,04,18.90
2013,07,14,16,05,19.00
2013,07,14,16,06,18.90
2013,07,14,16,07,18.90
2013,07,14,16,08,18.90
2013,07,14,16,09,19.00
2013,07,14,16,10,19.10
2013,07,14,16,11,19.30
2013,07,14,16,12,19.40
2013,07,14,16,13,19.50
2013,07,14,16,14,19.70
2013,07,14,16,15,19.80
2013,07,14,16,16,19.80
2013,07,14,16,17,19.90
2013,07,14,16,18,19.90
2013,07,14,16,19,20.00
2013,07,14,16,20,20.10
2013,07,14,16,21,20.20
2013,07,14,16,22,20.30
2013,07,14,16,23,20.40
2013,07,14,16,24,20.50
2013,07,14,16,25,20.60
2013,07,14,16,26,20.70
2013,07,14,16,27,20.80
2013,07,14,16,28,21.00
2013,07,14,16,29,21.30
2013,07,14,16,30,21.50
2013,07,14,16,31,21.80
2013,07,14,16,32,22.10
2013,07,14,16,33,22.30
2013,07,14,16,34,22.40
2013,07,14,16,35,22.30
2013,07,14,16,36,22.20
2013,07,14,16,37,22.10
2013,07,14,16,38,22.00
2013,07,14,16,39,21.90
2013,07,14,16,40,21.80
2013,07,14,16,41,21.80
2013,07,14,16,42,21.60
2013,07,14,16,43,21.40
2013,07,14,16,44,21.10
2013,07,14,16,45,20.90
2013,07,14,16,46,20.30
2013,07,14,16,47,20.00
2013,07,14,16,48,19.90
2013,07,14,16,49,20.00
2013,07,14,16,50,20.30
2013,07,14,16,51,20.80
2013,07,14,16,52,21.10
2013,07,14,16,53,21.70
2013,07,14,16,54,22.20
2013,07,14,16,55,22.80
2013,07,14,16,56,23.20
2013,07,14,16,57,23.60
2013,07,14,16,58,24.00
2013,07,14,16,59,24.30
2013,07,14,17,00,24.50
2013,07,14,17,01,24.80
2013,07,14,17,02,24.90
2013,07,14,17,03,25.00
2013,07,14,17,04,25.10
2013,07,14,17,05,25.20
2013,07,14,17,06,25.30
2013,07,14,17,07,25.30
2013,07,14,17,08,25.30
2013,07,14,17,09,25.30
2013,07,14,17,10,25.40
2013,07,14,17,11,25.40
2013,07,14,17,12,25.50
2013,07,14,17,13,25.50
2013,07,14,17,14,25.60
2013,07,14,17,15,25.70
2013,07,14,17,16,25.70
2013,07,14,17,17,25.70
2013,07,14,17,18,25.60
2013,07,14,17,19,25.60
2013,07,14,17,20,25.60
2013,07,14,17,21,25.60